Location: Newark
(23.3970°S, 47.6010°W)
Time: 14:06:03
(UTC+00:00)

deb Explorer IX - Pass Details

Date: 18 February 2020
Orbit: 547 x 1100 km, 38.8° (Epoch: 29 March)

Event Time Altitude Azimuth Distance (km) Brightness Sun altitude
Rises 01:01:34 0° 317° (NW) 3,632 - -40.4°
Reaches altitude 10° 01:04:08 10° 321° (NW) 2,757 - -40.8°
Maximum altitude 01:10:48 58° 39° (NE) 1,234 - -41.9°
Drops below altitude 10° 01:17:59 10° 115° (ESE) 2,963 - -43.1°
Sets 01:20:50 0° 119° (ESE) 3,921 - -43.6°
